Location: Crayja
(6.2254°N, 10.6273°W)
Time: 08:36:19
(UTC+00:00)

OAO 3 Rocket - Pass Details

Date: 17 February 2020
Orbit: 629 x 683 km, 35.0° (Epoch: 06 April)

Event Time Altitude Azimuth Distance (km) Brightness Sun altitude
Exits shadow 05:42:19 - 213° (SSW) 2,192 5.7 -19.4°
Reaches altitude 10° 05:42:39 10° 211° (SSW) 2,076 5.5 -19.3°
Maximum altitude 05:47:11 39° 142° (SE) 992 4.5 -18.2°
Drops below altitude 10° 05:51:47 10° 73° (ENE) 2,101 6.7 -17.1°
Sets 05:54:18 0° 66° (ENE) 3,019 7.5 -16.5°
